This demonstration page uses our WeatherBlox Daily Observations layout. Learn more.

Left ArrowRight Arrow

39.01783, -85.05884

Hourly Observations for July 7, 2021

Temp ( °F °C ) Dew Point ( °F °C ) Humidity (%) Winds ( mph kmh ) Pressure ( in mb ) Visibility ( mi km ) Precip ( " mm )
12:52 am 00:52 Clear 72 22.2 67 19.4 84 84 SW 6 9 30.03 1017 9 14 0.00 0.00
1:52 am 01:52 Mostly Clear 71 21.7 68 20 90 90 S 3 6 30.02 1017 7 11 0.00 0.00
2:52 am 02:52 Mostly Clear 71 21.7 68 20 90 90 S 5 7 30.01 1016 7 11 0.00 0.00
3:52 am 03:52 Mostly Clear 72 22.2 68 20 87 87 Calm 30.01 1016 9 14 0.00 0.00
4:52 am 04:52 Mostly Clear with Mist and Fog 71 21.7 67 19.4 87 87 Calm 30.00 1016 6 10 0.00 0.00
5:52 am 05:52 Partly Cloudy with Mist and Fog 69 20.6 66 18.9 90 90 S 5 7 29.99 1016 5 8 0.00 0.00
6:52 am 06:52 Mostly Cloudy 71 21.7 67 19.4 87 87 Calm 30.00 1016 7 11 0.00 0.00
7:52 am 07:52 Partly Cloudy 73 22.8 68 20 84 84 SSE 6 9 30.00 1016 8 13 0.00 0.00
8:52 am 08:52 Cloudy with Light Rain 75 23.9 66 18.9 74 74 SSW 6 9 30.01 1016 10 16 0.00 0.00
9:52 am 09:52 Mostly Cloudy 76 24.4 68 20 77 77 SW 6 9 30.00 1016 10 16 0.00 0.00
10:52 am 10:52 Mostly Sunny 82 27.8 68 20 63 63 VRB 3 6 29.99 1016 10 16 0.00 0.00
11:52 am 11:52 Mostly Sunny 85 29.4 67 19.4 55 55 S 8 13 29.98 1015 10 16 0.00 0.00
12:52 pm 12:52 Sunny 87 30.6 67 19.4 51 51 SW 9 15 29.97 1015 10 16 0.00 0.00
1:52 pm 13:52 Mostly Cloudy 86 30 66 18.9 51 51 S 9 15 29.95 1014 10 16 0.00 0.00
2:52 pm 14:52 Partly Cloudy 87 30.6 65 18.3 48 48 S 12 19 29.93 1014 10 16 0.00 0.00
3:52 pm 15:52 Partly Cloudy 88 31.1 67 19.4 50 50 SSW 12 19 29.91 1013 10 16 0.00 0.00
4:52 pm 16:52 Mostly Cloudy 87 30.6 67 19.4 51 51 SSW 10 17 29.89 1012 10 16 0.00 0.00
5:52 pm 17:52 Cloudy with Rain 79 26.1 66 18.9 65 65 SSW 15 24 29.91 1013 7 11 0.00 0.00
6:52 pm 18:52 Cloudy 80 26.7 67 19.4 64 64 SW 10 17 29.90 1013 10 16 0.00 0.00
7:52 pm 19:52 Mostly Cloudy 78 25.6 68 20 71 71 Calm 29.91 1013 10 16 0.00 0.00
8:52 pm 20:52 Cloudy 77 25 67 19.4 71 71 SSW 8 13 29.93 1013 10 16 0.00 0.00
9:52 pm 21:52 Mostly Cloudy 75 23.9 67 19.4 76 76 SSW 7 11 29.91 1013 10 16 0.00 0.00
10:52 pm 22:52 Mostly Clear 74 23.3 66 18.9 76 76 SSW 6 9 29.91 1013 10 16 0.00 0.00
11:52 pm 23:52 Cloudy 74 23.3 67 19.4 79 79 S 9 15 29.91 1013 10 16 0.00 0.00

Powered by AerisWeather